STARLINK-1543, 46053

Orbit data source: Space-Track

STARLINK-1543, 46053 is a payload satellite owned by SpaceX/Seattle (US) in LEO that was launched on Fri, 07 Aug 2020 UTC via an FALCON 9 launch vehicle from the Air Force Eastern Test Range (AFETR). Payload-class satellites include a variety of spacecraft equipped with specific instruments for various scientific and technological missions. These include communications satellites like Starlink; space stations such as the ISS; scientific satellites like the Hubble; Earth observation satellites from companies like Planet Labs, Umbra, and HawkEye 360; GPS; miniature CubeSats for education and research; and military/defense satellites.

Loading next visibility...
Identifier
46053, 2020-055AC
Orbit
LEO
Country
Flag of USUS
Related business
Manufacturer
SpaceX/Seattle
Mission
Operational Commercial Communications
Bus & Motor
STARLINK, Unknown motor
Mass
260 kg wet, ~248 kg dry
Launch date (UTC)
2020-08-07 (5 years ago)
Launch vehicle
FALCON 9
Launch site
Air Force Eastern Test Range (AFETR)
Object type
Payload
Rocket body
Debris
Shape & HBR
Box + 1 Pan, 10.1 m
Radar Cross Section
13.562 m², Large (>1 m²)

Expand to show TLE details & history
Last TLE update: 17 hours ago

TLE from 17 hours ago
0 STARLINK-1543
1 46053U 20055AC  25297.47908209 -.00005085  00000-0 -32275-3 0  9996
2 46053  53.0553   8.0889 0001356 101.5274 258.5868 15.06399467288504
Epoch: 2025-10-24T11:29Z
TLE epoch observation values (Epoch: 2025-10-24T11:29:52.692Z)
Latitude
0.00003°
Longitude
162.49598°
Altitude
548.278 km
Speed
7.589 km/s
True Right ascension
00h 32m 21s
True Declination
0° 00' 00"
Sunlit
Object was in full shadow at epoch
Visualization orbit readout
Latitude
Unknown
Longitude
Unknown
Altitude
Unknown
Speed
Unknown
Apparent Right ascension
Unknown
Apparent Declination
Unknown
Sunlit
N/A
Visualization observer readout
Local Sidereal Time
23:18:09
Azimuth
Unknown
Elevation
Unknown
Doppler factor
Unknown
Orbital elements
Apogee altitude
548.423 km
Perigee altitude
546.545 km
Semi-major axis
6,925.621 km
Eccentricity
0.00014
Inclination
53.0553°
RAAN
8.0889°
Arg. of periapsis
101.5274°
True anomaly
258.57157°
Mean anomaly
258.5868°
Eccentric anomaly
258.57918°
Mean motion
3.76578 °/min
Orbital period
95.6 mins
BSTAR
-0.00032275
Loading maneuver chart data...
Computing Atmospheric mass density...

Documentation

Showing up to 5 results
|